This is the latest recevied weather packets stored in our database for station/object W2MMD-13. If no packets are shown the sender has not sent any weather packets the latest 1 day(s).
| Time | Temp. | Humidity | Pressure | Rain* | Wind** | Luminosity | Snow |
|---|---|---|---|---|---|---|---|
| 1778029719 | 20.56° C | 66% | - | 0 mm | 3.13 m/s, 158° | - | - |
| 1778029132 | 20.56° C | 66% | - | 0 mm | 4.02 m/s, 135° | - | - |
| 1778029119 | 20.56° C | 66% | - | 0 mm | 2.24 m/s, 158° | - | - |
| 1778028519 | 21.11° C | 65% | - | 0 mm | 2.68 m/s, 113° | - | - |
| 1778027932 | 21.11° C | 63% | - | 0 mm | 2.24 m/s, 315° | - | - |
| 1778027919 | 21.11° C | 63% | - | 0 mm | 3.58 m/s, 315° | - | - |
| 1778027319 | 21.67° C | 61% | - | 0 mm | 3.58 m/s, 113° | - | - |
| 1778026732 | 21.67° C | 58% | - | 0 mm | 3.58 m/s, 180° | - | - |
| 1778026719 | 21.67° C | 58% | - | 0 mm | 3.13 m/s, 113° | - | - |
| 1778026119 | 22.22° C | 55% | - | 0 mm | 2.68 m/s, 180° | - | - |
| 1778025520 | 22.78° C | 55% | - | 0 mm | 4.02 m/s, 113° | - | - |
| 1778024920 | 23.33° C | 53% | - | 0 mm | 1.79 m/s, 135° | - | - |
| 1778024320 | 23.89° C | 50% | - | 0 mm | 3.58 m/s, 113° | - | - |
| 1778023720 | 24.44° C | 45% | - | 0 mm | 4.02 m/s, 180° | - | - |
| 1778023120 | 25° C | 45% | - | 0 mm | 1.79 m/s, 180° | - | - |
| 1778022520 | 25.56° C | 44% | - | 0 mm | 2.24 m/s, 90° | - | - |
| 1778021920 | 25.56° C | 43% | - | 0 mm | 4.47 m/s, 158° | - | - |
| 1778021320 | 26.11° C | 42% | - | 0 mm | 3.58 m/s, 135° | - | - |
| 1778020720 | 26.67° C | 42% | - | 0 mm | 3.58 m/s, 158° | - | - |
| 1778020120 | 26.67° C | 42% | - | 0 mm | 4.92 m/s, 158° | - | - |
| 1778019520 | 26.11° C | 43% | - | 0 mm | 5.81 m/s, 203° | - | - |
| 1778018920 | 26.11° C | 43% | - | 0 mm | 4.47 m/s, 180° | - | - |
| 1778018320 | 26.67° C | 42% | - | 0 mm | 5.36 m/s, 158° | - | - |
| 1778017719 | 26.67° C | 42% | - | 0 mm | 4.47 m/s, 180° | - | - |
| 1778017119 | 27.22° C | 42% | - | 0 mm | 7.15 m/s, 180° | - | - |
* Rain latest hour (hover to see other rain measurements)
** Current wind speed in m/s (hover to see current wind gust speed)